TimeEST,TemperatureF,Dew PointF,Humidity,Sea Level PressureIn,VisibilityMPH,Wind Direction,Wind SpeedMPH,Gust SpeedMPH,PrecipitationIn,Events,Conditions,WindDirDegrees,DateUTC
12:13 AM,30.2,25.3,82,30.16,10.0,Calm,Calm,-,N/A,,Overcast,0,2012-11-06 05:13:00
12:33 AM,31.1,26.6,83,30.16,10.0,Calm,Calm,-,N/A,,Overcast,0,2012-11-06 05:33:00
12:53 AM,30.9,27.0,85,30.16,10.0,Calm,Calm,-,N/A,,Overcast,0,2012-11-06 05:53:00
1:13 AM,31.5,27.3,85,30.15,10.0,Calm,Calm,-,N/A,,Overcast,0,2012-11-06 06:13:00
1:33 AM,31.5,27.3,85,30.15,10.0,Calm,Calm,-,N/A,,Overcast,0,2012-11-06 06:33:00
1:53 AM,31.1,26.8,84,30.14,10.0,Calm,Calm,-,N/A,,Overcast,0,2012-11-06 06:53:00
2:13 AM,31.8,27.1,83,30.14,10.0,Calm,Calm,-,N/A,,Overcast,0,2012-11-06 07:13:00
2:33 AM,31.6,27.1,83,30.14,10.0,Calm,Calm,-,N/A,,Overcast,0,2012-11-06 07:33:00
2:53 AM,32.0,26.6,80,30.14,10.0,Calm,Calm,-,N/A,,Overcast,0,2012-11-06 07:53:00
3:13 AM,32.0,26.6,80,30.13,10.0,Calm,Calm,-,N/A,,Overcast,0,2012-11-06 08:13:00
3:33 AM,31.8,27.5,84,30.12,10.0,Calm,Calm,-,N/A,,Overcast,0,2012-11-06 08:33:00
3:53 AM,31.8,26.2,80,30.11,10.0,Calm,Calm,-,N/A,,Overcast,0,2012-11-06 08:53:00
4:13 AM,31.6,27.3,84,30.10,10.0,Calm,Calm,-,N/A,,Overcast,0,2012-11-06 09:13:00
4:33 AM,31.6,26.8,82,30.10,10.0,Calm,Calm,-,N/A,,Overcast,0,2012-11-06 09:33:00
4:53 AM,31.6,27.0,83,30.10,10.0,Calm,Calm,-,N/A,,Overcast,0,2012-11-06 09:53:00
5:13 AM,31.8,27.7,85,30.09,10.0,Calm,Calm,-,N/A,,Overcast,0,2012-11-06 10:13:00
5:33 AM,31.3,27.3,85,30.09,10.0,Calm,Calm,-,N/A,,Overcast,0,2012-11-06 10:33:00
5:53 AM,31.3,27.5,86,30.09,10.0,Calm,Calm,-,N/A,,Overcast,0,2012-11-06 10:53:00
6:13 AM,32.0,27.9,85,30.09,10.0,Calm,Calm,-,N/A,,Overcast,0,2012-11-06 11:13:00
6:33 AM,32.0,28.6,87,30.09,10.0,Calm,Calm,-,N/A,,Overcast,0,2012-11-06 11:33:00
6:54 AM,32.0,28.8,88,30.09,10.0,Calm,Calm,-,N/A,,Overcast,0,2012-11-06 11:54:00
7:13 AM,32.2,28.8,87,30.09,10.0,Calm,Calm,-,N/A,,Overcast,0,2012-11-06 12:13:00
7:33 AM,32.4,28.2,85,30.10,10.0,SSE,4.6,-,N/A,,Overcast,160,2012-11-06 12:33:00
7:53 AM,32.4,28.0,84,30.10,10.0,SSE,3.5,-,N/A,,Overcast,160,2012-11-06 12:53:00
8:11 AM,32.4,28.2,85,30.10,10.0,SSE,4.6,-,N/A,,Overcast,160,2012-11-06 13:11:00
8:35 AM,32.9,27.9,82,30.09,10.0,South,4.6,-,N/A,,Overcast,180,2012-11-06 13:35:00
8:53 AM,33.8,28.0,79,30.09,10.0,South,3.5,-,N/A,,Overcast,180,2012-11-06 13:53:00
9:13 AM,33.8,27.5,78,30.09,10.0,SSW,4.6,-,N/A,,Overcast,200,2012-11-06 14:13:00
9:33 AM,34.7,27.9,76,30.09,10.0,South,6.9,-,N/A,,Overcast,170,2012-11-06 14:33:00
9:53 AM,34.9,28.2,77,30.09,10.0,South,5.8,-,N/A,,Overcast,170,2012-11-06 14:53:00
10:13 AM,35.6,27.9,73,30.09,10.0,South,3.5,-,N/A,,Overcast,180,2012-11-06 15:13:00
10:33 AM,35.8,27.9,73,30.08,10.0,South,6.9,-,N/A,,Overcast,190,2012-11-06 15:33:00
10:53 AM,37.0,28.8,72,30.08,10.0,South,5.8,-,N/A,,Overcast,190,2012-11-06 15:53:00
11:13 AM,37.4,28.4,70,30.08,10.0,South,5.8,-,N/A,,Overcast,180,2012-11-06 16:13:00
11:34 AM,37.4,28.2,69,30.08,10.0,South,9.2,-,N/A,,Overcast,170,2012-11-06 16:34:00
11:53 AM,38.3,28.4,68,30.07,10.0,South,9.2,-,N/A,,Overcast,170,2012-11-06 16:53:00
12:13 PM,39.2,28.9,67,30.05,10.0,South,4.6,-,N/A,,Overcast,190,2012-11-06 17:13:00
12:34 PM,39.2,28.6,66,30.04,10.0,SSE,8.1,-,N/A,,Overcast,150,2012-11-06 17:34:00
12:53 PM,39.2,28.0,64,30.03,10.0,SSE,9.2,-,N/A,,Overcast,160,2012-11-06 17:53:00
1:13 PM,39.2,26.6,61,30.03,10.0,South,10.4,-,N/A,,Overcast,170,2012-11-06 18:13:00
1:33 PM,39.2,26.1,59,30.02,10.0,South,9.2,-,N/A,,Overcast,180,2012-11-06 18:33:00
1:53 PM,39.4,26.1,59,30.02,10.0,South,6.9,-,N/A,,Overcast,180,2012-11-06 18:53:00
2:13 PM,39.2,25.5,58,30.02,10.0,SSE,4.6,-,N/A,,Overcast,160,2012-11-06 19:13:00
2:33 PM,39.4,25.5,58,30.02,10.0,South,5.8,-,N/A,,Overcast,180,2012-11-06 19:33:00
2:54 PM,39.4,25.5,58,30.01,10.0,South,5.8,-,N/A,,Overcast,180,2012-11-06 19:54:00
3:13 PM,39.6,26.1,58,30.00,10.0,South,4.6,-,N/A,,Overcast,180,2012-11-06 20:13:00
3:34 PM,39.6,25.9,58,30.00,10.0,SE,4.6,-,N/A,,Overcast,140,2012-11-06 20:34:00
3:53 PM,39.6,26.1,58,30.00,10.0,SE,5.8,-,N/A,,Overcast,130,2012-11-06 20:53:00
4:13 PM,39.7,26.4,59,29.99,10.0,South,4.6,-,N/A,,Overcast,170,2012-11-06 21:13:00
4:34 PM,39.7,26.4,59,29.99,10.0,SSE,6.9,-,N/A,,Overcast,160,2012-11-06 21:34:00
4:53 PM,39.6,26.2,59,29.99,10.0,SSE,4.6,-,N/A,,Overcast,150,2012-11-06 21:53:00
5:13 PM,39.2,26.4,60,29.99,10.0,ESE,5.8,-,N/A,,Overcast,120,2012-11-06 22:13:00
5:34 PM,39.2,26.8,61,29.99,10.0,ESE,4.6,-,N/A,,Overcast,120,2012-11-06 22:34:00
5:54 PM,39.2,27.1,62,29.99,10.0,East,4.6,-,N/A,,Overcast,100,2012-11-06 22:54:00
6:13 PM,37.9,27.5,66,29.99,10.0,ENE,3.5,-,N/A,,Overcast,70,2012-11-06 23:13:00
6:33 PM,37.4,27.9,68,30.00,10.0,ENE,4.6,-,N/A,,Mostly Cloudy,60,2012-11-06 23:33:00
6:42 PM,37.2,27.9,69,30.00,10.0,ENE,3.5,-,N/A,,Mostly Cloudy,70,2012-11-06 23:42:00
7:13 PM,35.6,27.9,73,29.99,10.0,East,4.6,-,N/A,,Scattered Clouds,80,2012-11-07 00:13:00
7:34 PM,35.6,28.4,75,30.00,10.0,Calm,Calm,-,N/A,,Mostly Cloudy,0,2012-11-07 00:34:00
7:53 PM,35.8,28.4,75,30.00,10.0,Calm,Calm,-,N/A,,Scattered Clouds,0,2012-11-07 00:53:00
8:13 PM,36.7,28.2,71,30.00,10.0,ESE,4.6,-,N/A,,Scattered Clouds,110,2012-11-07 01:13:00
8:34 PM,34.3,27.7,77,30.00,10.0,East,4.6,-,N/A,,Mostly Cloudy,100,2012-11-07 01:34:00
8:53 PM,35.6,27.5,72,30.00,10.0,ESE,5.8,-,N/A,,Overcast,120,2012-11-07 01:53:00
9:14 PM,34.7,27.5,75,30.00,10.0,ESE,4.6,-,N/A,,Mostly Cloudy,110,2012-11-07 02:14:00
9:34 PM,34.0,27.9,78,30.01,10.0,ESE,4.6,-,N/A,,Overcast,110,2012-11-07 02:34:00
9:53 PM,33.6,27.9,79,30.02,10.0,East,3.5,-,N/A,,Overcast,90,2012-11-07 02:53:00
10:14 PM,32.9,28.2,83,30.02,10.0,East,3.5,-,N/A,,Overcast,100,2012-11-07 03:14:00
10:34 PM,33.8,28.4,81,30.02,10.0,ESE,3.5,-,N/A,,Overcast,110,2012-11-07 03:34:00
10:53 PM,33.3,28.2,82,30.02,10.0,East,3.5,-,N/A,,Overcast,100,2012-11-07 03:53:00
11:14 PM,32.0,27.9,85,30.00,10.0,East,4.6,-,N/A,,Overcast,90,2012-11-07 04:14:00
11:33 PM,32.0,27.7,84,30.00,10.0,East,3.5,-,N/A,,Overcast,90,2012-11-07 04:33:00
11:53 PM,31.6,27.5,85,30.00,10.0,East,3.5,-,N/A,,Scattered Clouds,100,2012-11-07 04:53:00